User: anonymous   Login
Location: Chateh
(58.6667°N, 118.6000°W)
Time: 23:54:19
(UTC+00:00)
Language:

KKS-1 - Orbit

View from above orbital plane
View from above orbital plane
View from above satellite
View from above satellite

Ground track
Ground track

The orbit data is extracted from the following two-line orbital elements,

1 33499U 09002H   23340.56063338  .00001827  00000-0  26176-3 0  9998
2 33499  98.1543 234.9485 0009700  40.5227 319.6703 14.77779833799517
Epoch (UTC): 06 December 2023 13:27:18
Eccentricity: 0.0009700
inclination: 98.1543°
perigee height: 629 km
apogee height: 643 km
right ascension of ascending node: 234.9485°
argument of perigee: 40.5227°
revolutions per day: 14.77779833
mean anomaly at epoch: 319.6703°
orbit number at epoch: 79951

The dashed part of the orbit path shows where the satellite is in the earth's shadow,  

DLR